Stations météo

réclame
Mon MeteoGroup
Granada/Aeropuerto, Espagne (8419): Température de l'air & dewpoint: 16.10.2018 16:00:00 - 22.10.2018 16:00:00 (CEST)Granada/Aeropuerto, Espagne (8419): Vitesse du vent: 16.10.2018 16:00:00 - 22.10.2018 16:00:00 (CEST)Granada/Aeropuerto, Espagne (8419): Direction du vent: 16.10.2018 16:00:00 - 22.10.2018 16:00:00 (CEST)Granada/Aeropuerto, Espagne (8419): reduced air pressure: 16.10.2018 16:00:00 - 22.10.2018 16:00:00 (CEST)Granada/Aeropuerto, Espagne (8419): visibility: 16.10.2018 16:00:00 - 22.10.2018 16:00:00 (CEST)
Date & Time tt [°C] td [°C] ff [km/h] ff [knt] dd ppp [hPa] vv [km]
22.10.2018 16:00:00 23,6 13,9 0 0 N 1017,4 22
22.10.2018 15:00:00 22,0 13,4 2 1 N 1018,6 20
22.10.2018 14:00:00 21,1 13,3 2 1 N 1019,2 20
22.10.2018 13:00:00 19,1 14,1 4 2 N 1020,3 19
22.10.2018 12:00:00 16,2 13,9 2 1 N 1021,1 9
22.10.2018 11:00:00 14,2 14,0 0 0 N 1021,8 5
22.10.2018 10:00:00 12,9 12,9 0 0 N 1022,0 -
22.10.2018 09:00:00 11,5 11,5 4 2 S 1021,9 0,4
22.10.2018 08:00:00 11,0 11,0 0 0 N 1021,9 0,1
22.10.2018 07:00:00 11,3 11,3 0 0 N 1021,6 -
22.10.2018 06:00:00 11,6 11,4 0 0 N 1021,0 -
22.10.2018 05:00:00 11,5 11,2 0 0 N 1020,8 7
22.10.2018 04:00:00 12,0 11,5 0 0 N 1021,0 10
22.10.2018 03:00:00 12,4 11,8 0 0 N 1021,0 10
22.10.2018 02:00:00 13,4 12,8 4 2 S 1020,8 12
22.10.2018 01:00:00 14,4 13,8 0 0 N 1020,4 14
22.10.2018 00:00:00 15,1 14,3 0 0 N 1020,1 14
21.10.2018 23:00:00 15,1 14,1 0 0 N 1019,5 15
21.10.2018 22:00:00 15,7 14,6 5 3 S 1018,8 15
21.10.2018 21:00:00 16,5 14,9 0 0 N 1018,7 20
21.10.2018 20:00:00 16,8 14,6 2 1 S 1017,9 20
21.10.2018 19:00:00 18,5 14,6 5 3 W 1017,1 20
21.10.2018 18:00:00 19,1 14,9 9 5 WSW 1016,3 22
21.10.2018 17:00:00 19,3 14,5 18 10 W 1016,2 20
21.10.2018 16:00:00 19,5 14,9 24 13 W 1015,9 22
21.10.2018 15:00:00 21,3 15,6 18 10 W 1015,6 15
21.10.2018 14:00:00 22,3 15,2 9 5 W 1016,0 15
21.10.2018 13:00:00 20,7 14,9 5 3 W 1016,9 17
21.10.2018 12:00:00 19,0 15,2 8 4 WNW 1017,6 16
21.10.2018 11:00:00 16,9 13,7 0 0 N 1018,1 15
21.10.2018 10:00:00 14,1 12,7 0 0 N 1019,0 14
21.10.2018 09:00:00 12,7 12,1 0 0 N 1018,9 10
21.10.2018 08:00:00 13,0 12,4 8 4 E 1018,2 10
21.10.2018 07:00:00 13,3 12,5 9 5 WSW 1017,8 15
21.10.2018 06:00:00 12,6 12,1 5 3 W 1017,5 11
21.10.2018 05:00:00 11,9 11,6 8 4 W 1017,6 8
21.10.2018 04:00:00 11,8 11,5 4 2 SSW 1017,7 8
21.10.2018 03:00:00 11,9 11,4 0 0 N 1018,0 12
21.10.2018 02:00:00 11,3 10,8 4 2 SSE 1018,2 14
21.10.2018 01:00:00 11,2 10,6 0 0 N 1018,3 6
21.10.2018 00:00:00 12,4 11,9 11 6 SW 1017,9 9
20.10.2018 23:00:00 12,6 12,0 0 0 N 1017,2 8
20.10.2018 22:00:00 12,9 12,3 2 1 E 1016,3 9
20.10.2018 21:00:00 13,6 12,8 4 2 SE 1016,3 10
20.10.2018 20:00:00 13,7 12,8 4 2 SE 1015,3 18
20.10.2018 19:00:00 15,8 13,3 4 2 NW 1014,2 18
20.10.2018 18:00:00 16,3 13,3 5 3 WNW 1013,9 30
20.10.2018 17:00:00 15,9 12,9 9 5 E 1014,1 15
20.10.2018 16:00:00 13,1 12,2 8 4 ESE 1016,3 11
20.10.2018 15:00:00 11,6 11,1 0 0 N 1017,2 4,0
20.10.2018 14:00:00 11,6 11,1 4 2 NE 1018,0 6
20.10.2018 13:00:00 10,6 10,0 4 2 SSE 1017,8 10
20.10.2018 12:00:00 9,9 9,4 5 3 NW 1018,3 6
20.10.2018 11:00:00 9,6 9,1 4 2 ESE 1018,0 6
20.10.2018 10:00:00 8,8 8,5 4 2 WSW 1017,3 3,2
20.10.2018 09:00:00 8,5 8,1 2 1 NNW 1017,0 18
20.10.2018 08:00:00 7,8 7,4 2 1 NNW 1016,3 15
20.10.2018 07:00:00 6,8 6,4 5 3 SSE 1016,5 15
20.10.2018 06:00:00 6,7 6,3 0 0 N 1016,5 20
20.10.2018 05:00:00 7,2 6,6 0 0 N 1016,1 21
20.10.2018 04:00:00 7,2 6,6 0 0 N 1016,2 26
20.10.2018 03:00:00 8,0 7,4 0 0 N 1016,4 28
20.10.2018 02:00:00 8,3 7,7 4 2 W 1016,2 30
20.10.2018 01:00:00 8,8 8,0 4 2 SW 1016,2 30
20.10.2018 00:00:00 9,4 8,5 4 2 W 1015,9 30
19.10.2018 23:00:00 10,3 8,9 4 2 SSE 1015,6 30
19.10.2018 22:00:00 11,4 9,5 4 2 NE 1015,0 17
19.10.2018 21:00:00 12,9 9,0 5 3 S 1014,0 30
19.10.2018 20:00:00 13,4 10,1 5 3 WSW 1013,1 20
19.10.2018 19:00:00 16,9 10,2 4 2 W 1011,3 29
19.10.2018 18:00:00 18,3 9,3 4 2 NW 1010,7 30
19.10.2018 17:00:00 17,8 9,8 9 5 W 1010,7 30
19.10.2018 16:00:00 17,6 9,0 9 5 SSW 1010,8 30
19.10.2018 15:00:00 18,1 7,8 13 7 ENE 1010,5 30
19.10.2018 14:00:00 16,7 9,0 9 5 NE 1010,9 25
19.10.2018 13:00:00 13,5 10,2 4 2 NNE 1012,4 16
19.10.2018 12:00:00 9,7 8,7 5 3 NE 1013,7 -
19.10.2018 11:00:00 8,9 8,9 4 2 NNW 1014,1 6
19.10.2018 10:00:00 6,5 6,5 0 0 N 1014,5 -
19.10.2018 09:00:00 6,2 6,2 2 1 NNW 1013,5 0,2
19.10.2018 08:00:00 6,5 6,5 0 0 N 1013,0 0,2
19.10.2018 07:00:00 6,5 6,5 4 2 W 1012,7 -
19.10.2018 06:00:00 6,8 6,8 0 0 N 1012,2 -
19.10.2018 05:00:00 6,3 6,3 2 1 E 1012,2 -
19.10.2018 04:00:00 6,2 6,1 0 0 N 1012,5 -
19.10.2018 03:00:00 6,6 6,5 4 2 SSW 1013,0 -
19.10.2018 02:00:00 6,8 6,5 4 2 NNE 1012,2 6
19.10.2018 01:00:00 7,1 6,6 4 2 S 1012,2 9
19.10.2018 00:00:00 8,0 7,6 2 1 S 1012,6 8
18.10.2018 23:00:00 9,0 8,1 0 0 N 1012,5 20
18.10.2018 22:00:00 9,5 8,7 0 0 N 1011,7 30
18.10.2018 21:00:00 9,9 9,0 8 4 S 1011,4 21
18.10.2018 20:00:00 10,6 9,5 2 1 ENE 1010,7 30
18.10.2018 19:00:00 11,0 9,9 0 0 N 1009,6 30
18.10.2018 18:00:00 10,8 9,4 2 1 NW 1009,3 30
18.10.2018 17:00:00 11,0 9,7 8 4 ENE 1009,2 4,0
18.10.2018 16:00:00 11,8 10,9 9 5 ESE 1009,6 -
18.10.2018 15:00:00 11,2 10,1 9 5 ENE 1010,1 18
18.10.2018 14:00:00 11,0 9,9 5 3 W 1010,9 4,5
18.10.2018 13:00:00 11,4 9,8 15 8 W 1010,7 16
18.10.2018 12:00:00 14,4 12,4 8 4 ESE 1007,8 25
18.10.2018 11:00:00 13,4 11,8 0 0 N 1008,0 20
18.10.2018 10:00:00 13,3 12,4 5 3 WNW 1008,0 8
18.10.2018 09:00:00 12,6 11,5 2 1 E 1007,6 8
18.10.2018 08:00:00 12,1 11,2 0 0 N 1008,1 13
18.10.2018 07:00:00 12,6 11,3 4 2 NE 1009,1 14
18.10.2018 06:00:00 12,6 12,0 4 2 W 1009,6 8
18.10.2018 05:00:00 12,3 11,7 0 0 N 1010,2 10
18.10.2018 04:00:00 12,5 11,9 0 0 N 1011,1 12
18.10.2018 03:00:00 12,4 11,7 0 0 N 1012,2 10
18.10.2018 02:00:00 12,6 11,7 0 0 N 1013,0 13
18.10.2018 01:00:00 12,9 11,8 0 0 N 1013,8 11
18.10.2018 00:00:00 14,3 12,7 4 2 SSE 1013,9 22
17.10.2018 23:00:00 15,0 13,0 0 0 N 1014,1 25
17.10.2018 22:00:00 15,0 12,6 4 2 WNW 1013,7 30
17.10.2018 21:00:00 16,0 12,9 9 5 SSW 1013,5 20
17.10.2018 20:00:00 17,5 12,4 11 6 WSW 1012,7 30
17.10.2018 19:00:00 20,8 11,7 9 5 WNW 1011,7 30
17.10.2018 18:00:00 22,4 11,8 8 4 WNW 1011,6 30
17.10.2018 17:00:00 23,3 10,8 11 6 W 1011,9 30
17.10.2018 16:00:00 23,5 10,7 4 2 W 1012,4 30
17.10.2018 15:00:00 21,8 10,9 5 3 NW 1013,4 25
17.10.2018 14:00:00 20,0 12,2 2 1 W 1014,9 20
17.10.2018 13:00:00 17,8 12,7 4 2 SE 1016,5 23
17.10.2018 12:00:00 14,6 12,2 0 0 N 1017,9 9
17.10.2018 11:00:00 11,2 11,0 0 0 N 1019,1 1,2
17.10.2018 10:00:00 10,5 10,4 0 0 N 1019,0 -
17.10.2018 09:00:00 9,8 9,7 0 0 N 1019,0 0,6
17.10.2018 08:00:00 9,2 9,1 0 0 N 1018,7 1,5
17.10.2018 07:00:00 9,0 8,7 0 0 N 1018,7 4,0
17.10.2018 06:00:00 10,4 10,2 0 0 N 1018,1 1,2
17.10.2018 05:00:00 9,8 9,5 0 0 N 1018,3 -
17.10.2018 04:00:00 9,3 8,8 0 0 N 1018,5 17
17.10.2018 03:00:00 9,8 9,2 4 2 SSW 1018,6 15
17.10.2018 02:00:00 10,6 10,0 4 2 SW 1018,3 18
17.10.2018 01:00:00 11,1 10,5 2 1 NW 1018,1 14
17.10.2018 00:00:00 12,0 11,2 0 0 N 1017,8 20
16.10.2018 23:00:00 13,1 12,0 0 0 N 1017,4 20
16.10.2018 22:00:00 14,2 12,5 0 0 N 1016,5 15
16.10.2018 21:00:00 15,4 12,9 13 7 W 1015,4 30
16.10.2018 20:00:00 16,0 12,9 8 4 W 1014,5 30
16.10.2018 19:00:00 19,0 12,7 9 5 W 1013,0 30
16.10.2018 18:00:00 19,0 12,5 9 5 W 1012,8 30
16.10.2018 17:00:00 19,1 12,3 13 7 WSW 1012,6 30
16.10.2018 16:00:00 20,3 12,7 13 7 W 1011,8 27

tt = Température de l'air
td = dewpoint
ff = Vitesse du vent
dd = Direction du vent
ppp = reduced air pressure
vv = visibility

stations d'obs. à proximité